Regional Weather Roundup
Issued by NWS

Home | Current Version | Previous Version | Text Only | Print | Product List | Glossary Off
Versions: 1 2 3 4 5 6 7 8 9 10 11 12 13 14 15 16 17 18 19 20 21 22 23 24 25 26 27 28 29 30 31 32 33 34 35 36 37 38 39 40 41 42 43 44 45 46 47 48 49 50

000
ASUS43 KLMK 020902
RWRKY
KENTUCKY REGIONAL WEATHER ROUNDUP
NATIONAL WEATHER SERVICE LOUISVILLE KY
500 AM EDT SUN AUG 02 2015

NOTE "FAIR" INDICATES FEW OR NO CLOUDS BELOW 12,000 FEET
WITH NO SIGNIFICANT WEATHER AND/OR OBSTRUCTIONS TO VISIBILITY.

KYZ001>023-026-027-061>063-070>075-021000-
WESTERN AND SOUTH CENTRAL KENTUCKY

CITY           SKY/WX    TMP DP  RH WIND       PRES   REMARKS
PADUCAH        CLEAR     68  66  93 CALM      29.95F
HENDERSON      MOCLDY    64  61  88 CALM      29.96F
OWENSBORO      PTCLDY    67  65  93 CALM      29.98F
HOPKINSVILLE   PTCLDY    65  63  94 CALM      29.97F
BOWLING GREEN  MOCLDY    62  60  93 CALM      29.99F
GLASGOW        NOT AVBL
$$

KYZ024-025-028>034-038-045-046-053-021000-
NORTH CENTRAL KENTUCKY

CITY           SKY/WX    TMP DP  RH WIND       PRES   REMARKS
LOUISVILLE/SDF CLOUDY    69  61  75 CALM      29.98F
LOUISVILLE/LOU MOCLDY    67  61  81 CALM      30.00F
FORT KNOX      MOCLDY    61  59  93 CALM      29.98F
$$

KYZ035>037-039>044-047>052-055>060-089>105-021000-
NORTHEAST KENTUCKY

CITY           SKY/WX    TMP DP  RH WIND       PRES   REMARKS
LEXINGTON      CLEAR     60  58  92 SE3       30.01F
COVINGTON      MOCLDY    63  61  93 CALM      29.99F
FRANKFORT      PTCLDY    61  58  90 N3        29.99S
$$

KYZ054-064>069-076>088-106>120-021000-
SOUTHEAST KENTUCKY

CITY           SKY/WX    TMP DP  RH WIND       PRES   REMARKS
JACKSON        CLEAR     65  59  81 CALM      30.02F
LONDON         CLEAR     62  57  83 CALM      30.01F
SOMERSET       NOT AVBL
MIDDLESBORO    CLOUDY    61  60  99 CALM      30.02F
MONTICELLO     SUNNY     57  57 100 CALM      30.04S FOG
$$




USA.gov is the U.S. government's official web portal to all federal, state and local government web resources and services.